Regional Weather Roundup
Issued by NWS

Home | Current Version | Previous Version | Graphics & Text | Print | Product List | Glossary On
Versions: 1 2 3 4 5 6 7 8 9 10 11 12 13 14 15 16 17 18 19 20 21 22 23 24 25 26 27 28 29 30 31 32 33 34 35 36 37 38 39 40 41 42 43 44 45 46 47 48 49 50
000
ASUS44 KMEG 282100
RWRTN
TENNESSEE HOURLY STATE WEATHER ROUNDUP
NATIONAL WEATHER SERVICE MEMPHIS TN
300 PM CST WED JAN 28 2015

TNZ002-004-019-021-049-052-054-088>092-282200-
WEST TENNESSEE

CITY           SKY/WX    TMP DP  RH WIND       PRES   REMARKS
MEMPHIS INTL   MOSUNNY   61  31  32 S12       30.17F
NWS MEMPHIS      N/A     61 N/A N/A MISG        N/A
JACKSON        SUNNY     55  27  34 S8        30.17F
DYERSBURG      SUNNY     54  25  32 SE12      30.18F
UNION CITY     SUNNY     48  30  49 SE13      30.15F
PARIS          SUNNY     48  27  43 S10       30.18F
LEXINGTON      SUNNY     52  27  37 S7        30.18F
SAVANNAH       SUNNY     54  30  40 S6        30.21F
$$

TNZ008-025-027-028-033-062-065-066-282200-
NORTH MIDDLE TENNESSEE

CITY           SKY/WX    TMP DP  RH WIND       PRES   REMARKS
NASHVILLE      MOSUNNY   50  22  33 S5        30.24F
CLARKSVILLE    SUNNY     48  24  39 SE7       30.22F
COOKEVILLE     SUNNY     48  23  37 S5        30.22F
CROSSVILLE     SUNNY     44  13  28 VRB3      30.22F
$$

TNZ061-075-076-078-094-096-097-282200-
SOUTH MIDDLE TENNESSEE

CITY           SKY/WX    TMP DP  RH WIND       PRES   REMARKS
FAYETTEVILLE   SUNNY     48  27  43 N12G32    30.22F
TULLAHOMA      SUNNY     48  19  32 CALM      30.22F
WINCHESTER       N/A     52  21  30 MISG      30.23S
MCMINNVILLE    SUNNY     50  19  29 CALM      30.22F
SHELBYVILLE    SUNNY     52  27  37 SE3       30.23F
$$

TNZ017-018-042-046-047-282200-
NORTHEAST TENNESSEE

CITY           SKY/WX    TMP DP  RH WIND       PRES   REMARKS
TRI CITIES     MOSUNNY   38  18  44 S5        30.27S WCI  34
ELIZABETHTON   CLEAR     36  18  48 NW6       30.26S WCI  31
$$

TNZ012-013-036-069-073-074-282200-
CENTRAL EAST TENNESSEE

CITY           SKY/WX    TMP DP  RH WIND       PRES   REMARKS
KNOXVILLE      MOSUNNY   44  15  31 CALM      30.27S
OAK RIDGE      SUNNY     44  12  27 CALM      30.29S
GATLINBURG       N/A     43  12  28 CALM      30.27S VSB 1/4
MORRISTOWN     CLEAR     39  18  41 CALM      30.27F
$$

TNZ083-085-099-282200-
SOUTHEAST TENNESSEE

CITY           SKY/WX    TMP DP  RH WIND       PRES   REMARKS
CHATTANOOGA    MOSUNNY   49  16  26 N6        30.27S
$$

SKY/WX REPORTED AS FAIR MEANS FEW OR NO CLOUDS BELOW
12 THOUSAND FEET.




USA.gov is the U.S. government's official web portal to all federal, state and local government web resources and services.